Alicia, AR

7:12 PM CST on February 05, 2016 (GMT -0600)
Walnut Ridge Regional

Weather History for KARG - April, 2012

Change the Weather History Date:

Saturday, April 21, 2012

  Actual Average Record
Temperature  
Mean Temperature 56 °F -  
Max Temperature 64 °F 69 °F 84 °F (2005)
Min Temperature 48 °F 50 °F 44 °F (2015)
Degree Days  
Heating Degree Days 9    
Growing Degree Days 6 (Base 50)    
Moisture  
Dew Point 43 °F    
Average Humidity 67    
Maximum Humidity 82    
Minimum Humidity 45    
Precipitation  
Precipitation 0.00 in - - ()
Sea Level Pressure  
Sea Level Pressure 29.98 in    
Wind  
Wind Speed 10 mph (NNE)    
Max Wind Speed 16 mph    
Max Gust Speed 23 mph    
Visibility 10 miles    
Events      
Averages and records for this station are not official NWS values.
T = Trace of Precipitation, MM = Missing Value Source: NWS Daily Summary

Daily Weather History Graph

Daily Weather History Graph

Search for Another Location

Airport or City:

Trip Planner

Search our weather history database for the weather conditions in past years. The results will help you decide how hot, cold, wet, or windy it might be!

Date:

Astronomy

Apr. 21, 2012 Rise Set
Actual Time 6:22 AM CDT 7:43 PM CDT
Civil Twilight 5:55 AM CDT 8:09 PM CDT
Nautical Twilight 5:23 AM CDT 8:42 PM CDT
Astronomical Twilight 4:49 AM CDT 9:15 PM CDT
Moon 6:19 AM CDT (4/21) 8:22 PM CDT (4/21)
Length of Visible Light 14h 14m
Length of Day
13h 20m
New Moon, 0% of the Moon is Illuminated
Apr 21
New Moon
Apr 29
First Quarter
May 5
Full
May 12
Last Quarter
May 20
New

Hourly Weather History & Observations

Time (CDT) Temp. Dew Point Humidity Pressure Visibility Wind Dir Wind Speed Gust Speed Precip Events Conditions
12:15 AM 50.0 °F 42.8 °F 76% 30.00 in 10.0 mi North 16.1 mph 23.0 mph N/A   Overcast
12:35 AM 48.2 °F 42.8 °F 82% 30.01 in 10.0 mi North 13.8 mph 23.0 mph N/A   Overcast
12:55 AM 48.2 °F 42.8 °F 82% 30.01 in 10.0 mi North 9.2 mph - N/A   Overcast
1:15 AM 50.0 °F 42.8 °F 76% 30.00 in 10.0 mi North 10.4 mph - N/A   Overcast
1:35 AM 48.2 °F 42.8 °F 82% 30.00 in 10.0 mi North 9.2 mph - N/A   Overcast
1:55 AM 48.2 °F 42.8 °F 82% 29.98 in 10.0 mi North 9.2 mph - N/A   Overcast
2:15 AM 48.2 °F 42.8 °F 82% 29.98 in 10.0 mi North 10.4 mph - N/A   Overcast
2:35 AM 48.2 °F 42.8 °F 82% 29.98 in 10.0 mi North 10.4 mph - N/A   Overcast
2:55 AM 48.2 °F 42.8 °F 82% 29.98 in 10.0 mi NNW 11.5 mph - N/A   Overcast
3:15 AM 48.2 °F 42.8 °F 82% 29.98 in 10.0 mi NNW 10.4 mph - N/A   Overcast
3:35 AM 48.2 °F 42.8 °F 82% 29.98 in 10.0 mi NNW 10.4 mph - N/A   Overcast
3:55 AM 48.2 °F 42.8 °F 82% 29.98 in 10.0 mi NNW 11.5 mph - N/A   Overcast
4:15 AM 48.2 °F 42.8 °F 82% 29.98 in 10.0 mi NNW 11.5 mph - N/A   Overcast
4:35 AM 48.2 °F 42.8 °F 82% 29.98 in 10.0 mi North 11.5 mph - N/A   Overcast
5:15 AM 48.2 °F 42.8 °F 82% 29.98 in 10.0 mi North 13.8 mph - N/A   Overcast
5:35 AM 48.2 °F 42.8 °F 82% 29.98 in 10.0 mi North 10.4 mph - N/A   Overcast
5:55 AM 48.2 °F 42.8 °F 82% 29.98 in 10.0 mi NNE 10.4 mph - N/A   Overcast
6:15 AM 48.2 °F 42.8 °F 82% 29.98 in 10.0 mi NNE 13.8 mph - N/A   Overcast
6:35 AM 48.2 °F 39.2 °F 71% 29.99 in 10.0 mi NNE 13.8 mph - N/A   Overcast
6:55 AM 48.2 °F 39.2 °F 71% 29.99 in 10.0 mi North 11.5 mph - N/A   Overcast
7:15 AM 48.2 °F 39.2 °F 71% 29.99 in 10.0 mi North 10.4 mph 17.3 mph N/A   Overcast
7:35 AM 48.2 °F 41.0 °F 76% 29.99 in 10.0 mi North 11.5 mph 17.3 mph N/A   Overcast
7:55 AM 48.2 °F 39.2 °F 71% 30.00 in 10.0 mi North 11.5 mph - N/A   Overcast
8:15 AM 48.2 °F 39.2 °F 71% 30.01 in 10.0 mi North 13.8 mph - N/A   Overcast
8:35 AM 48.2 °F 39.2 °F 71% 30.01 in 10.0 mi North 13.8 mph - N/A   Overcast
8:55 AM 48.2 °F 39.2 °F 71% 30.02 in 10.0 mi NNE 13.8 mph 20.7 mph N/A   Overcast
9:15 AM 48.2 °F 37.4 °F 66% 30.02 in 10.0 mi North 10.4 mph - N/A   Overcast
9:35 AM 48.2 °F 39.2 °F 71% 30.02 in 10.0 mi North 8.1 mph - N/A   Overcast
9:55 AM 50.0 °F 41.0 °F 71% 30.02 in 10.0 mi North 12.7 mph 17.3 mph N/A   Overcast
10:15 AM 50.0 °F 39.2 °F 66% 30.02 in 10.0 mi North 12.7 mph - N/A   Overcast
10:35 AM 51.8 °F 39.2 °F 62% 30.02 in 10.0 mi NNW 12.7 mph 16.1 mph N/A   Overcast
10:55 AM 51.8 °F 39.2 °F 62% 30.02 in 10.0 mi NNW 11.5 mph 17.3 mph N/A   Mostly Cloudy
11:15 AM 51.8 °F 39.2 °F 62% 30.03 in 10.0 mi North 11.5 mph - N/A   Mostly Cloudy
11:35 AM 53.6 °F 42.8 °F 67% 30.03 in 10.0 mi NNE 12.7 mph - N/A   Scattered Clouds
11:55 AM 55.4 °F 42.8 °F 63% 30.02 in 10.0 mi NNE 10.4 mph 17.3 mph N/A   Mostly Cloudy
12:15 PM 55.4 °F 42.8 °F 63% 30.02 in 10.0 mi North 8.1 mph - N/A   Partly Cloudy
12:35 PM 55.4 °F 44.6 °F 67% 30.02 in 10.0 mi North 6.9 mph - N/A   Scattered Clouds
12:55 PM 57.2 °F 44.6 °F 63% 30.01 in 10.0 mi North 6.9 mph - N/A   Partly Cloudy
1:35 PM 57.2 °F 44.6 °F 63% 29.99 in 10.0 mi North 9.2 mph - N/A   Clear
1:55 PM 59.0 °F 44.6 °F 59% 29.98 in 10.0 mi NNE 6.9 mph - N/A   Clear
2:15 PM 59.0 °F 44.6 °F 59% 29.98 in 10.0 mi Calm Calm - N/A   Clear
2:35 PM 60.8 °F 44.6 °F 55% 29.97 in 10.0 mi North 8.1 mph - N/A   Clear
2:55 PM 60.8 °F 44.6 °F 55% 29.96 in 10.0 mi Calm Calm - N/A   Clear
3:15 PM 62.6 °F 44.6 °F 52% 29.95 in 10.0 mi North 5.8 mph - N/A   Clear
3:35 PM 62.6 °F 42.8 °F 48% 29.95 in 10.0 mi NNE 3.5 mph - N/A   Clear
3:55 PM 62.6 °F 42.8 °F 48% 29.95 in 10.0 mi NNE 6.9 mph - N/A   Clear
4:15 PM 62.6 °F 44.6 °F 52% 29.95 in 10.0 mi Calm Calm - N/A   Clear
4:35 PM 64.4 °F 44.6 °F 49% 29.94 in 10.0 mi North 3.5 mph - N/A   Clear
4:55 PM 64.4 °F 44.6 °F 49% 29.95 in 10.0 mi North 5.8 mph - N/A   Clear
5:15 PM 64.4 °F 44.6 °F 49% 29.95 in 10.0 mi NE 8.1 mph - N/A   Clear
5:35 PM 64.4 °F 44.6 °F 49% 29.95 in 10.0 mi NW 3.5 mph - N/A   Scattered Clouds
5:55 PM 64.4 °F 42.8 °F 45% 29.95 in 10.0 mi Calm Calm - N/A   Scattered Clouds
6:35 PM 64.4 °F 44.6 °F 49% 29.95 in 10.0 mi Calm Calm - N/A   Partly Cloudy
6:55 PM 64.4 °F 42.8 °F 45% 29.93 in 10.0 mi Calm Calm - N/A   Clear
7:15 PM 64.4 °F 42.8 °F 45% 29.94 in 10.0 mi Calm Calm - N/A   Clear
7:35 PM 62.6 °F 42.8 °F 48% 29.95 in 10.0 mi Calm Calm - N/A   Clear
7:55 PM 62.6 °F 42.8 °F 48% 29.95 in 10.0 mi Calm Calm - N/A   Clear
8:15 PM 60.8 °F 48.2 °F 63% 29.95 in 10.0 mi SE 3.5 mph - N/A   Clear
8:35 PM 60.8 °F 48.2 °F 63% 29.96 in 10.0 mi SSE 3.5 mph - N/A   Clear
8:55 PM 57.2 °F 46.4 °F 67% 29.96 in 10.0 mi ESE 5.8 mph - N/A   Clear
9:15 PM 57.2 °F 48.2 °F 72% 29.96 in 10.0 mi East 5.8 mph - N/A   Clear
9:35 PM 57.2 °F 46.4 °F 67% 29.97 in 10.0 mi South 5.8 mph - N/A   Clear
9:55 PM 57.2 °F 46.4 °F 67% 29.98 in 10.0 mi SSE 3.5 mph - N/A   Clear
10:15 PM 57.2 °F 46.4 °F 67% 29.98 in 10.0 mi SSE 3.5 mph - N/A   Clear
10:35 PM 53.6 °F 46.4 °F 77% 29.98 in 10.0 mi ENE 6.9 mph - N/A   Clear
10:55 PM 53.6 °F 46.4 °F 77% 29.99 in 10.0 mi NE 5.8 mph - N/A   Clear
11:15 PM 53.6 °F 46.4 °F 77% 29.99 in 10.0 mi NE 5.8 mph - N/A   Clear
11:35 PM 53.6 °F 44.6 °F 72% 29.99 in 10.0 mi NE 4.6 mph - N/A   Clear
11:55 PM 51.8 °F 44.6 °F 76% 29.99 in 10.0 mi NE 4.6 mph - N/A   Clear